Time,TemperatureF,DewpointF,PressureIn,WindDirection,WindDirectionDegrees,WindSpeedMPH,WindSpeedGustMPH,Humidity,HourlyPrecipIn,Conditions,Clouds,dailyrainin,SoftwareType,DateUTC
2013-02-17 00:00:00,27.7,37.9,29.73,NE,34,1.0,3.0,73,0.00,,,0.00,meteohub,2013-02-17 05:00:00,
2013-02-17 00:05:00,27.7,37.9,29.73,ENE,67,0.0,4.0,73,0.00,,,0.00,meteohub,2013-02-17 05:05:00,
2013-02-17 00:10:00,27.3,37.9,29.72,North,0,0.0,4.0,73,0.00,,,0.00,meteohub,2013-02-17 05:10:00,
2013-02-17 00:15:00,27.1,37.9,29.72,NNE,33,6.0,6.0,72,0.00,,,0.00,meteohub,2013-02-17 05:15:00,
2013-02-17 00:20:00,27.0,37.8,29.71,NE,34,0.0,6.0,73,0.00,,,0.00,meteohub,2013-02-17 05:20:00,
2013-02-17 00:25:00,26.8,37.8,29.70,NE,40,1.0,8.0,74,0.00,,,0.00,meteohub,2013-02-17 05:25:00,
2013-02-17 00:30:00,26.4,37.6,29.70,ENE,64,0.0,8.0,75,0.00,,,0.00,meteohub,2013-02-17 05:30:00,
2013-02-17 00:35:00,26.2,37.6,29.70,North,350,1.0,7.0,76,0.00,,,0.00,meteohub,2013-02-17 05:35:00,
2013-02-17 00:40:00,25.9,37.4,29.72,NE,49,4.0,7.0,76,0.00,,,0.00,meteohub,2013-02-17 05:40:00,
2013-02-17 00:45:00,25.9,37.2,29.72,NE,34,5.0,8.0,74,0.00,,,0.00,meteohub,2013-02-17 05:45:00,
2013-02-17 00:50:00,25.5,37.2,29.71,NE,40,1.0,9.0,75,0.00,,,0.00,meteohub,2013-02-17 05:50:00,
2013-02-17 00:55:00,25.5,37.0,29.70,NE,41,1.0,9.0,74,0.00,,,0.00,meteohub,2013-02-17 05:55:00,
2013-02-17 01:00:00,25.5,37.0,29.72,SW,221,2.0,9.0,72,0.00,,,0.00,meteohub,2013-02-17 06:00:00,
2013-02-17 01:05:00,25.5,37.0,29.73,ENE,75,4.0,7.0,70,0.00,,,0.00,meteohub,2013-02-17 06:05:00,
2013-02-17 01:10:00,25.5,37.0,29.71,NE,52,0.0,7.0,70,0.00,,,0.00,meteohub,2013-02-17 06:10:00,
2013-02-17 01:15:00,25.5,37.0,29.72,NNE,25,2.0,7.0,69,0.00,,,0.00,meteohub,2013-02-17 06:15:00,
2013-02-17 01:20:00,25.5,37.0,29.72,NNE,23,0.0,4.0,67,0.00,,,0.00,meteohub,2013-02-17 06:20:00,
2013-02-17 01:25:00,25.5,37.0,29.72,North,0,2.0,4.0,66,0.00,,,0.00,meteohub,2013-02-17 06:25:00,
2013-02-17 01:30:00,25.7,35.8,29.71,ENE,78,2.0,5.0,66,0.00,,,0.00,meteohub,2013-02-17 06:30:00,
2013-02-17 01:35:00,25.7,35.8,29.69,ENE,74,0.0,5.0,65,0.00,,,0.00,meteohub,2013-02-17 06:35:00,
2013-02-17 01:40:00,25.7,35.6,29.69,North,349,2.0,5.0,65,0.00,,,0.00,meteohub,2013-02-17 06:40:00,
2013-02-17 01:45:00,25.7,35.6,29.68,North,350,2.0,5.0,64,0.00,,,0.00,meteohub,2013-02-17 06:45:00,
2013-02-17 01:50:00,25.7,35.4,29.69,ENE,78,1.0,3.0,62,0.00,,,0.00,meteohub,2013-02-17 06:50:00,
2013-02-17 01:55:00,25.5,36.5,29.69,North,349,4.0,7.0,63,0.00,,,0.00,meteohub,2013-02-17 06:55:00,
2013-02-17 02:00:00,25.3,36.5,29.68,East,87,1.0,7.0,63,0.00,,,0.00,meteohub,2013-02-17 07:00:00,
2013-02-17 02:05:00,25.2,36.5,29.67,ESE,115,4.0,10.0,64,0.00,,,0.00,meteohub,2013-02-17 07:05:00,
2013-02-17 02:10:00,24.8,35.4,29.67,NE,55,4.0,10.0,65,0.00,,,0.00,meteohub,2013-02-17 07:10:00,
2013-02-17 02:15:00,24.6,35.2,29.67,NNE,18,6.0,8.0,65,0.00,,,0.00,meteohub,2013-02-17 07:15:00,
2013-02-17 02:20:00,24.4,35.2,29.68,NE,56,3.0,7.0,65,0.00,,,0.00,meteohub,2013-02-17 07:20:00,
2013-02-17 02:25:00,24.4,35.2,29.68,SE,134,0.0,6.0,66,0.00,,,0.00,meteohub,2013-02-17 07:25:00,
2013-02-17 02:30:00,24.4,35.2,29.68,ENE,71,2.0,7.0,66,0.00,,,0.00,meteohub,2013-02-17 07:30:00,
2013-02-17 02:35:00,24.4,35.1,29.68,North,0,2.0,7.0,65,0.00,,,0.00,meteohub,2013-02-17 07:35:00,
2013-02-17 02:41:00,24.3,35.1,29.68,NE,46,0.0,8.0,65,0.00,,,0.00,meteohub,2013-02-17 07:41:00,
2013-02-17 02:46:00,24.1,36.1,29.68,North,5,0.0,8.0,65,0.00,,,0.00,meteohub,2013-02-17 07:46:00,
2013-02-17 02:51:00,24.1,35.2,29.68,SE,138,1.0,8.0,65,0.00,,,0.00,meteohub,2013-02-17 07:51:00,
2013-02-17 02:56:00,24.1,35.2,29.68,NW,322,1.0,8.0,65,0.00,,,0.00,meteohub,2013-02-17 07:56:00,
2013-02-17 03:01:00,24.1,35.2,29.67,NNE,15,0.0,6.0,65,0.00,,,0.00,meteohub,2013-02-17 08:01:00,
2013-02-17 03:06:00,24.1,35.1,29.65,ENE,61,7.0,7.0,64,0.00,,,0.00,meteohub,2013-02-17 08:06:00,
2013-02-17 03:11:00,24.1,35.1,29.65,NNE,19,0.0,8.0,63,0.00,,,0.00,meteohub,2013-02-17 08:11:00,
2013-02-17 03:16:00,24.1,36.0,29.65,ENE,67,0.0,8.0,63,0.00,,,0.00,meteohub,2013-02-17 08:16:00,
2013-02-17 03:21:00,23.9,35.1,29.64,WNW,296,0.0,8.0,64,0.00,,,0.00,meteohub,2013-02-17 08:21:00,
2013-02-17 03:26:00,23.9,35.1,29.63,North,349,2.0,7.0,62,0.00,,,0.00,meteohub,2013-02-17 08:26:00,
2013-02-17 03:31:00,23.7,34.9,29.64,NNE,28,2.0,7.0,62,0.00,,,0.00,meteohub,2013-02-17 08:31:00,
2013-02-17 03:36:00,23.5,34.9,29.63,East,90,4.0,8.0,65,0.00,,,0.00,meteohub,2013-02-17 08:36:00,
2013-02-17 03:41:00,23.2,34.9,29.63,ENE,57,0.0,8.0,65,0.00,,,0.00,meteohub,2013-02-17 08:41:00,
2013-02-17 03:46:00,23.0,34.7,29.63,NW,321,1.0,13.0,67,0.00,,,0.00,meteohub,2013-02-17 08:46:00,
2013-02-17 03:51:00,22.8,34.9,29.64,WNW,303,3.0,13.0,67,0.00,,,0.00,meteohub,2013-02-17 08:51:00,
2013-02-17 03:56:00,22.8,34.9,29.64,NNE,13,6.0,13.0,67,0.00,,,0.00,meteohub,2013-02-17 08:56:00,
2013-02-17 04:01:00,22.8,34.9,29.64,NE,42,2.0,9.0,68,0.00,,,0.00,meteohub,2013-02-17 09:01:00,
2013-02-17 04:06:00,22.6,34.9,29.64,NNW,345,8.0,9.0,67,0.00,,,0.00,meteohub,2013-02-17 09:06:00,
2013-02-17 04:11:00,22.6,34.7,29.63,ENE,76,0.0,9.0,67,0.00,,,0.00,meteohub,2013-02-17 09:11:00,
2013-02-17 04:16:00,22.6,34.7,29.63,NW,317,5.0,9.0,68,0.00,,,0.00,meteohub,2013-02-17 09:16:00,
2013-02-17 04:21:00,22.5,34.9,29.63,NNW,336,6.0,9.0,69,0.00,,,0.00,meteohub,2013-02-17 09:21:00,
2013-02-17 04:26:00,22.5,34.7,29.62,North,355,2.0,9.0,70,0.00,,,0.00,meteohub,2013-02-17 09:26:00,
2013-02-17 04:31:00,22.3,34.7,29.62,North,0,1.0,7.0,71,0.00,,,0.00,meteohub,2013-02-17 09:31:00,
2013-02-17 04:36:00,22.1,34.7,29.62,NE,56,1.0,7.0,74,0.00,,,0.00,meteohub,2013-02-17 09:36:00,
2013-02-17 04:41:00,21.9,34.5,29.62,ENE,68,3.0,7.0,73,0.00,,,0.00,meteohub,2013-02-17 09:41:00,
2013-02-17 04:46:00,21.9,34.5,29.62,NW,309,1.0,8.0,74,0.00,,,0.00,meteohub,2013-02-17 09:46:00,
2013-02-17 04:51:00,21.7,34.5,29.62,East,84,1.0,8.0,73,0.00,,,0.00,meteohub,2013-02-17 09:51:00,
2013-02-17 04:56:00,21.7,34.7,29.63,North,0,4.0,8.0,73,0.00,,,0.00,meteohub,2013-02-17 09:56:00,
2013-02-17 05:01:00,21.7,34.7,29.62,NW,319,2.0,8.0,73,0.00,,,0.00,meteohub,2013-02-17 10:01:00,
2013-02-17 05:06:00,21.6,34.7,29.62,NNE,26,0.0,11.0,74,0.00,,,0.00,meteohub,2013-02-17 10:06:00,
2013-02-17 05:11:00,21.4,34.5,29.62,NE,44,1.0,11.0,76,0.00,,,0.00,meteohub,2013-02-17 10:11:00,
2013-02-17 05:16:00,21.0,34.5,29.61,North,0,4.0,12.0,78,0.00,,,0.00,meteohub,2013-02-17 10:16:00,
2013-02-17 05:21:00,20.7,34.5,29.61,NNE,26,1.0,12.0,81,0.00,,,0.00,meteohub,2013-02-17 10:21:00,
2013-02-17 05:26:00,20.3,34.5,29.60,ENE,68,3.0,11.0,83,0.00,,,0.00,meteohub,2013-02-17 10:26:00,
2013-02-17 05:31:00,19.9,34.5,29.59,NNE,14,2.0,8.0,85,0.00,,,0.00,meteohub,2013-02-17 10:31:00,
2013-02-17 05:36:00,19.8,34.5,29.59,NE,48,4.0,8.0,87,0.00,,,0.00,meteohub,2013-02-17 10:36:00,
2013-02-17 05:41:00,19.6,34.5,29.60,NE,42,1.0,8.0,88,0.00,,,0.00,meteohub,2013-02-17 10:41:00,
2013-02-17 05:46:00,19.2,34.5,29.60,ENE,76,4.0,8.0,88,0.00,,,0.00,meteohub,2013-02-17 10:46:00,
2013-02-17 05:51:00,19.0,34.5,29.60,NNE,18,1.0,8.0,89,0.00,,,0.00,meteohub,2013-02-17 10:51:00,
2013-02-17 05:56:00,19.0,34.5,29.59,NE,48,2.0,7.0,89,0.00,,,0.00,meteohub,2013-02-17 10:56:00,
2013-02-17 06:01:00,18.9,34.5,29.58,NE,36,4.0,7.0,89,0.00,,,0.00,meteohub,2013-02-17 11:01:00,
2013-02-17 06:06:00,18.7,34.5,29.58,NE,42,2.0,7.0,89,0.00,,,0.00,meteohub,2013-02-17 11:06:00,
2013-02-17 06:11:00,18.5,34.5,29.57,ENE,61,4.0,7.0,89,0.00,,,0.00,meteohub,2013-02-17 11:11:00,
2013-02-17 06:17:00,18.3,34.5,29.57,NNW,337,1.0,6.0,89,0.00,,,0.00,meteohub,2013-02-17 11:17:00,
2013-02-17 06:22:00,18.3,34.7,29.57,North,9,4.0,7.0,89,0.00,,,0.00,meteohub,2013-02-17 11:22:00,
2013-02-17 06:27:00,18.1,36.0,29.56,NE,34,1.0,10.0,89,0.00,,,0.00,meteohub,2013-02-17 11:27:00,
2013-02-17 06:32:00,18.1,36.0,29.56,ENE,65,0.0,10.0,89,0.00,,,0.00,meteohub,2013-02-17 11:32:00,
2013-02-17 06:37:00,18.1,36.3,29.55,North,10,3.0,7.0,89,0.00,,,0.00,meteohub,2013-02-17 11:37:00,
2013-02-17 06:42:00,18.1,35.2,29.55,NNE,29,0.0,6.0,89,0.00,,,0.00,meteohub,2013-02-17 11:42:00,
2013-02-17 06:47:00,18.1,35.2,29.55,WNW,298,0.0,6.0,89,0.00,,,0.00,meteohub,2013-02-17 11:47:00,
2013-02-17 06:52:00,18.1,36.5,29.55,ENE,74,3.0,9.0,89,0.00,,,0.00,meteohub,2013-02-17 11:52:00,
2013-02-17 06:57:00,18.1,36.5,29.55,NE,36,1.0,9.0,89,0.00,,,0.00,meteohub,2013-02-17 11:57:00,
2013-02-17 07:02:00,18.0,36.7,29.55,NNE,15,2.0,9.0,89,0.00,,,0.00,meteohub,2013-02-17 12:02:00,
2013-02-17 07:07:00,18.0,37.0,29.55,NE,36,1.0,8.0,88,0.00,,,0.00,meteohub,2013-02-17 12:07:00,
2013-02-17 07:12:00,18.0,37.0,29.54,NNE,24,0.0,11.0,88,0.00,,,0.00,meteohub,2013-02-17 12:12:00,
2013-02-17 07:17:00,17.8,36.0,29.54,NNE,18,2.0,11.0,89,0.00,,,0.00,meteohub,2013-02-17 12:17:00,
2013-02-17 07:22:00,17.8,36.0,29.53,North,0,2.0,11.0,89,0.00,,,0.00,meteohub,2013-02-17 12:22:00,
2013-02-17 07:27:00,17.8,36.0,29.53,NNE,26,3.0,10.0,88,0.00,,,0.00,meteohub,2013-02-17 12:27:00,
2013-02-17 07:32:00,17.8,36.0,29.52,NE,45,2.0,12.0,88,0.00,,,0.00,meteohub,2013-02-17 12:32:00,
2013-02-17 07:37:00,17.8,35.8,29.53,NE,36,1.0,12.0,88,0.00,,,0.00,meteohub,2013-02-17 12:37:00,
2013-02-17 07:42:00,17.8,36.0,29.52,NNW,343,0.0,12.0,88,0.00,,,0.00,meteohub,2013-02-17 12:42:00,
2013-02-17 07:47:00,17.8,36.1,29.53,NE,49,1.0,10.0,88,0.00,,,0.00,meteohub,2013-02-17 12:47:00,
2013-02-17 07:52:00,17.8,36.3,29.52,NNE,13,4.0,5.0,88,0.00,,,0.00,meteohub,2013-02-17 12:52:00,
2013-02-17 07:57:00,17.6,36.3,29.52,NNE,26,1.0,6.0,88,0.00,,,0.00,meteohub,2013-02-17 12:57:00,
2013-02-17 08:02:00,17.4,36.1,29.52,NNW,329,1.0,11.0,87,0.00,,,0.00,meteohub,2013-02-17 13:02:00,
2013-02-17 08:07:00,17.4,36.1,29.51,NNE,26,4.0,11.0,87,0.00,,,0.00,meteohub,2013-02-17 13:07:00,
2013-02-17 08:12:00,17.4,36.1,29.50,North,0,4.0,11.0,87,0.00,,,0.00,meteohub,2013-02-17 13:12:00,
2013-02-17 08:17:00,17.2,36.1,29.50,WNW,295,7.0,13.0,87,0.00,,,0.00,meteohub,2013-02-17 13:17:00,
2013-02-17 08:22:00,17.2,36.1,29.51,NNW,348,6.0,13.0,88,0.00,,,0.00,meteohub,2013-02-17 13:22:00,
2013-02-17 08:27:00,17.2,36.3,29.50,North,0,2.0,13.0,87,0.00,,,0.00,meteohub,2013-02-17 13:27:00,
2013-02-17 08:32:00,17.2,36.5,29.50,North,0,5.0,10.0,86,0.00,,,0.00,meteohub,2013-02-17 13:32:00,
2013-02-17 08:37:00,17.2,36.5,29.50,North,355,3.0,14.0,86,0.00,,,0.00,meteohub,2013-02-17 13:37:00,
2013-02-17 08:42:00,17.2,36.3,29.49,NNE,14,6.0,14.0,86,0.00,,,0.00,meteohub,2013-02-17 13:42:00,
2013-02-17 08:47:00,17.4,36.3,29.49,North,355,4.0,16.0,86,0.00,,,0.00,meteohub,2013-02-17 13:47:00,
2013-02-17 08:52:00,17.4,36.3,29.49,NE,46,1.0,16.0,86,0.00,,,0.00,meteohub,2013-02-17 13:52:00,
2013-02-17 08:57:00,17.4,36.3,29.48,North,5,7.0,16.0,84,0.00,,,0.00,meteohub,2013-02-17 13:57:00,
2013-02-17 09:02:00,17.8,36.3,29.48,NE,38,6.0,14.0,82,0.00,,,0.00,meteohub,2013-02-17 14:02:00,
2013-02-17 09:07:00,17.8,36.5,29.48,NW,319,1.0,14.0,81,0.00,,,0.00,meteohub,2013-02-17 14:07:00,
2013-02-17 09:12:00,18.0,36.7,29.47,NW,319,5.0,14.0,80,0.00,,,0.00,meteohub,2013-02-17 14:12:00,
2013-02-17 09:17:00,18.0,36.7,29.47,NW,313,7.0,12.0,79,0.00,,,0.00,meteohub,2013-02-17 14:17:00,
2013-02-17 09:22:00,18.1,36.7,29.47,NNW,338,6.0,11.0,79,0.00,,,0.00,meteohub,2013-02-17 14:22:00,
2013-02-17 09:27:00,18.1,36.5,29.47,North,0,5.0,11.0,78,0.00,,,0.00,meteohub,2013-02-17 14:27:00,
2013-02-17 09:32:00,18.3,36.5,29.46,NW,310,4.0,13.0,77,0.00,,,0.00,meteohub,2013-02-17 14:32:00,
2013-02-17 09:37:00,18.3,35.4,29.46,NE,34,5.0,13.0,77,0.00,,,0.00,meteohub,2013-02-17 14:37:00,
2013-02-17 09:42:00,18.7,36.3,29.46,North,5,2.0,13.0,76,0.00,,,0.00,meteohub,2013-02-17 14:42:00,
2013-02-17 09:47:00,18.7,36.3,29.45,NW,322,1.0,13.0,75,0.00,,,0.00,meteohub,2013-02-17 14:47:00,
2013-02-17 09:52:00,18.9,36.5,29.45,NE,36,11.0,14.0,75,0.00,,,0.00,meteohub,2013-02-17 14:52:00,
2013-02-17 09:57:00,18.9,36.7,29.45,NW,311,10.0,15.0,74,0.00,,,0.00,meteohub,2013-02-17 14:57:00,
2013-02-17 10:02:00,19.0,36.9,29.45,NNE,17,4.0,15.0,74,0.00,,,0.00,meteohub,2013-02-17 15:02:00,
2013-02-17 10:07:00,19.2,36.9,29.45,NNE,33,5.0,15.0,73,0.00,,,0.00,meteohub,2013-02-17 15:07:00,
2013-02-17 10:12:00,19.6,35.8,29.45,NNW,335,5.0,13.0,73,0.00,,,0.00,meteohub,2013-02-17 15:12:00,
2013-02-17 10:17:00,19.8,35.6,29.45,East,101,4.0,12.0,73,0.00,,,0.00,meteohub,2013-02-17 15:17:00,
2013-02-17 10:22:00,19.8,35.6,29.45,NE,41,5.0,10.0,72,0.00,,,0.00,meteohub,2013-02-17 15:22:00,
2013-02-17 10:27:00,19.8,35.4,29.45,North,11,4.0,11.0,71,0.00,,,0.00,meteohub,2013-02-17 15:27:00,
2013-02-17 10:32:00,19.9,35.4,29.44,NE,51,2.0,11.0,71,0.00,,,0.00,meteohub,2013-02-17 15:32:00,
2013-02-17 10:37:00,20.1,35.6,29.44,North,355,4.0,9.0,69,0.00,,,0.00,meteohub,2013-02-17 15:37:00,
2013-02-17 10:42:00,20.5,35.6,29.44,NNE,15,6.0,13.0,69,0.00,,,0.00,meteohub,2013-02-17 15:42:00,
2013-02-17 10:47:00,20.7,36.9,29.44,North,350,8.0,15.0,66,0.00,,,0.00,meteohub,2013-02-17 15:47:00,
2013-02-17 10:52:00,20.7,37.0,29.44,NNE,29,2.0,15.0,66,0.00,,,0.00,meteohub,2013-02-17 15:52:00,
2013-02-17 10:57:00,20.8,37.2,29.44,NNE,15,6.0,15.0,66,0.00,,,0.00,meteohub,2013-02-17 15:57:00,
2013-02-17 11:02:00,21.0,36.1,29.44,North,355,5.0,14.0,65,0.00,,,0.00,meteohub,2013-02-17 16:02:00,
2013-02-17 11:07:00,21.2,36.1,29.44,NE,37,4.0,14.0,65,0.00,,,0.00,meteohub,2013-02-17 16:07:00,
2013-02-17 11:12:00,21.4,36.1,29.45,NNE,21,1.0,14.0,64,0.00,,,0.00,meteohub,2013-02-17 16:12:00,
2013-02-17 11:17:00,21.4,36.1,29.44,NW,315,9.0,14.0,63,0.00,,,0.00,meteohub,2013-02-17 16:17:00,
2013-02-17 11:22:00,21.4,36.0,29.45,NW,314,6.0,18.0,64,0.00,,,0.00,meteohub,2013-02-17 16:22:00,
2013-02-17 11:27:00,21.6,36.1,29.44,North,0,10.0,18.0,63,0.00,,,0.00,meteohub,2013-02-17 16:27:00,
2013-02-17 11:32:00,21.6,36.1,29.45,NNE,29,7.0,18.0,63,0.00,,,0.00,meteohub,2013-02-17 16:32:00,
2013-02-17 11:37:00,21.7,36.3,29.44,WNW,301,5.0,14.0,62,0.00,,,0.00,meteohub,2013-02-17 16:37:00,
2013-02-17 11:42:00,21.9,36.3,29.44,East,92,5.0,14.0,62,0.00,,,0.00,meteohub,2013-02-17 16:42:00,
2013-02-17 11:47:00,22.1,36.3,29.44,ENE,60,5.0,15.0,61,0.00,,,0.00,meteohub,2013-02-17 16:47:00,
2013-02-17 11:52:00,22.1,36.3,29.44,North,355,2.0,15.0,60,0.00,,,0.00,meteohub,2013-02-17 16:52:00,
2013-02-17 11:57:00,22.3,36.1,29.44,NNW,333,7.0,15.0,59,0.00,,,0.00,meteohub,2013-02-17 16:57:00,
2013-02-17 12:02:00,22.3,36.1,29.44,NNE,17,5.0,16.0,58,0.00,,,0.00,meteohub,2013-02-17 17:02:00,
2013-02-17 12:07:00,22.5,36.1,29.44,NNE,20,2.0,16.0,60,0.00,,,0.00,meteohub,2013-02-17 17:07:00,
2013-02-17 12:12:00,22.6,36.1,29.44,NW,320,8.0,13.0,57,0.00,,,0.00,meteohub,2013-02-17 17:12:00,
2013-02-17 12:17:00,22.6,36.1,29.43,North,0,6.0,20.0,57,0.00,,,0.00,meteohub,2013-02-17 17:17:00,
2013-02-17 12:22:00,22.6,36.3,29.44,North,5,6.0,20.0,56,0.00,,,0.00,meteohub,2013-02-17 17:22:00,
2013-02-17 12:27:00,22.8,36.5,29.43,NNW,336,4.0,20.0,55,0.00,,,0.00,meteohub,2013-02-17 17:27:00,
2013-02-17 12:32:00,23.0,36.5,29.44,NW,323,11.0,14.0,55,0.00,,,0.00,meteohub,2013-02-17 17:32:00,
2013-02-17 12:37:00,22.8,36.5,29.44,NW,322,9.0,15.0,57,0.00,,,0.00,meteohub,2013-02-17 17:37:00,
2013-02-17 12:42:00,22.6,36.5,29.44,NNW,340,8.0,15.0,56,0.00,,,0.00,meteohub,2013-02-17 17:42:00,
2013-02-17 12:47:00,22.1,36.3,29.45,NW,304,11.0,16.0,56,0.00,,,0.00,meteohub,2013-02-17 17:47:00,
2013-02-17 12:52:00,21.9,35.2,29.45,NNE,24,5.0,20.0,55,0.00,,,0.00,meteohub,2013-02-17 17:52:00,
2013-02-17 12:57:00,21.9,35.1,29.45,NNW,338,4.0,20.0,57,0.00,,,0.00,meteohub,2013-02-17 17:57:00,
2013-02-17 13:02:00,21.9,36.1,29.45,NNW,340,14.0,19.0,55,0.00,,,0.00,meteohub,2013-02-17 18:02:00,
2013-02-17 13:07:00,21.7,36.1,29.45,NNW,333,11.0,16.0,55,0.00,,,0.00,meteohub,2013-02-17 18:07:00,
2013-02-17 13:12:00,21.6,35.2,29.45,NNW,331,8.0,21.0,55,0.00,,,0.00,meteohub,2013-02-17 18:12:00,
2013-02-17 13:17:00,21.4,35.2,29.45,NW,315,10.0,21.0,55,0.00,,,0.00,meteohub,2013-02-17 18:17:00,
2013-02-17 13:22:00,21.4,35.2,29.45,NNE,26,7.0,21.0,54,0.00,,,0.00,meteohub,2013-02-17 18:22:00,
2013-02-17 13:27:00,21.4,35.1,29.45,NW,325,14.0,21.0,54,0.00,,,0.00,meteohub,2013-02-17 18:27:00,
2013-02-17 13:32:00,21.0,34.9,29.46,NNE,14,15.0,20.0,54,0.00,,,0.00,meteohub,2013-02-17 18:32:00,
2013-02-17 13:37:00,20.8,34.9,29.46,NW,325,14.0,20.0,54,0.00,,,0.00,meteohub,2013-02-17 18:37:00,
2013-02-17 13:42:00,20.8,34.9,29.46,WNW,283,10.0,21.0,55,0.00,,,0.00,meteohub,2013-02-17 18:42:00,
2013-02-17 13:47:00,20.8,34.9,29.47,NW,323,18.0,22.0,55,0.00,,,0.00,meteohub,2013-02-17 18:47:00,
2013-02-17 13:52:00,20.8,35.1,29.47,NNW,328,9.0,22.0,54,0.00,,,0.00,meteohub,2013-02-17 18:52:00,
2013-02-17 13:57:00,20.8,35.4,29.47,NE,51,9.0,22.0,53,0.00,,,0.00,meteohub,2013-02-17 18:57:00,
2013-02-17 14:02:00,20.8,35.8,29.47,West,271,11.0,20.0,53,0.00,,,0.00,meteohub,2013-02-17 19:02:00,
2013-02-17 14:07:00,20.8,35.8,29.47,NE,55,11.0,20.0,53,0.00,,,0.00,meteohub,2013-02-17 19:07:00,
2013-02-17 14:12:00,20.8,35.8,29.47,NNW,337,11.0,20.0,53,0.00,,,0.00,meteohub,2013-02-17 19:12:00,
2013-02-17 14:17:00,20.8,35.6,29.47,NW,320,7.0,20.0,53,0.00,,,0.00,meteohub,2013-02-17 19:17:00,
2013-02-17 14:22:00,20.8,35.6,29.48,NW,319,10.0,20.0,52,0.00,,,0.00,meteohub,2013-02-17 19:22:00,
2013-02-17 14:27:00,20.7,35.8,29.48,North,355,6.0,20.0,53,0.00,,,0.00,meteohub,2013-02-17 19:27:00,
2013-02-17 14:32:00,20.8,35.8,29.48,NNW,342,14.0,21.0,53,0.00,,,0.00,meteohub,2013-02-17 19:32:00,
2013-02-17 14:37:00,20.8,35.8,29.49,North,0,6.0,21.0,53,0.00,,,0.00,meteohub,2013-02-17 19:37:00,
2013-02-17 14:42:00,20.8,35.8,29.49,North,5,5.0,18.0,53,0.00,,,0.00,meteohub,2013-02-17 19:42:00,
2013-02-17 14:47:00,20.7,35.8,29.48,NNE,30,11.0,18.0,52,0.00,,,0.00,meteohub,2013-02-17 19:47:00,
2013-02-17 14:52:00,20.8,35.8,29.49,NNW,328,8.0,21.0,52,0.00,,,0.00,meteohub,2013-02-17 19:52:00,
2013-02-17 14:57:00,21.0,36.0,29.49,North,5,8.0,21.0,52,0.00,,,0.00,meteohub,2013-02-17 19:57:00,
2013-02-17 15:02:00,21.0,36.1,29.49,North,355,9.0,24.0,51,0.00,,,0.00,meteohub,2013-02-17 20:02:00,
2013-02-17 15:07:00,21.0,34.9,29.49,North,355,5.0,24.0,52,0.00,,,0.00,meteohub,2013-02-17 20:07:00,
2013-02-17 15:12:00,21.2,34.7,29.49,North,0,2.0,20.0,51,0.00,,,0.00,meteohub,2013-02-17 20:12:00,
2013-02-17 15:17:00,21.4,34.9,29.49,NW,313,11.0,24.0,51,0.00,,,0.00,meteohub,2013-02-17 20:17:00,
2013-02-17 15:22:00,21.4,36.1,29.49,NW,311,9.0,24.0,51,0.00,,,0.00,meteohub,2013-02-17 20:22:00,
2013-02-17 15:27:00,21.6,34.9,29.49,NW,304,7.0,21.0,51,0.00,,,0.00,meteohub,2013-02-17 20:27:00,
2013-02-17 15:32:00,21.6,34.9,29.49,North,355,6.0,16.0,51,0.00,,,0.00,meteohub,2013-02-17 20:32:00,
2013-02-17 15:37:00,21.7,34.9,29.49,NNW,340,6.0,16.0,52,0.00,,,0.00,meteohub,2013-02-17 20:37:00,
2013-02-17 15:42:00,21.7,34.9,29.50,North,5,11.0,16.0,50,0.00,,,0.00,meteohub,2013-02-17 20:42:00,
2013-02-17 15:47:00,21.7,34.9,29.50,NNW,342,4.0,18.0,53,0.00,,,0.00,meteohub,2013-02-17 20:47:00,
2013-02-17 15:52:00,21.6,35.1,29.50,NNW,331,9.0,20.0,50,0.00,,,0.00,meteohub,2013-02-17 20:52:00,
2013-02-17 15:57:00,21.6,34.9,29.50,NNW,347,11.0,27.0,50,0.00,,,0.00,meteohub,2013-02-17 20:57:00,
2013-02-17 16:02:00,21.6,34.9,29.51,NNW,336,10.0,27.0,50,0.00,,,0.00,meteohub,2013-02-17 21:02:00,
2013-02-17 16:07:00,21.7,34.9,29.51,NNW,337,2.0,27.0,50,0.00,,,0.00,meteohub,2013-02-17 21:07:00,
2013-02-17 16:12:00,21.7,34.9,29.51,NW,319,9.0,20.0,50,0.00,,,0.00,meteohub,2013-02-17 21:12:00,
2013-02-17 16:17:00,21.7,34.9,29.52,WNW,286,4.0,20.0,51,0.00,,,0.00,meteohub,2013-02-17 21:17:00,
2013-02-17 16:22:00,21.7,35.1,29.52,NW,316,6.0,20.0,51,0.00,,,0.00,meteohub,2013-02-17 21:22:00,
2013-02-17 16:27:00,21.7,34.9,29.52,NNW,334,2.0,18.0,51,0.00,,,0.00,meteohub,2013-02-17 21:27:00,
2013-02-17 16:32:00,21.7,34.9,29.53,NW,326,11.0,18.0,51,0.00,,,0.00,meteohub,2013-02-17 21:32:00,
2013-02-17 16:37:00,21.6,34.9,29.53,NNW,341,2.0,21.0,52,0.00,,,0.00,meteohub,2013-02-17 21:37:00,
2013-02-17 16:42:00,21.6,34.9,29.54,NW,325,11.0,21.0,52,0.00,,,0.00,meteohub,2013-02-17 21:42:00,
2013-02-17 16:47:00,21.6,35.1,29.54,NNE,30,11.0,21.0,51,0.00,,,0.00,meteohub,2013-02-17 21:47:00,
2013-02-17 16:53:00,21.6,35.1,29.54,North,0,9.0,23.0,52,0.00,,,0.00,meteohub,2013-02-17 21:53:00,
2013-02-17 16:58:00,21.4,34.9,29.54,NNW,340,5.0,23.0,52,0.00,,,0.00,meteohub,2013-02-17 21:58:00,
2013-02-17 17:03:00,21.4,34.9,29.55,NNW,337,11.0,23.0,51,0.00,,,0.00,meteohub,2013-02-17 22:03:00,
2013-02-17 17:08:00,21.4,34.9,29.55,West,263,10.0,19.0,52,0.00,,,0.00,meteohub,2013-02-17 22:08:00,
2013-02-17 17:13:00,21.4,34.9,29.55,West,281,6.0,19.0,52,0.00,,,0.00,meteohub,2013-02-17 22:13:00,
2013-02-17 17:18:00,21.4,34.9,29.56,North,5,15.0,23.0,51,0.00,,,0.00,meteohub,2013-02-17 22:18:00,
2013-02-17 17:23:00,21.4,34.9,29.56,WNW,288,10.0,23.0,51,0.00,,,0.00,meteohub,2013-02-17 22:23:00,
2013-02-17 17:28:00,21.4,34.9,29.57,NW,311,8.0,21.0,52,0.00,,,0.00,meteohub,2013-02-17 22:28:00,
2013-02-17 17:33:00,21.4,34.9,29.57,NNW,332,6.0,21.0,51,0.00,,,0.00,meteohub,2013-02-17 22:33:00,
2013-02-17 17:38:00,21.4,34.7,29.57,NNW,341,6.0,15.0,52,0.00,,,0.00,meteohub,2013-02-17 22:38:00,
2013-02-17 17:43:00,21.4,34.9,29.58,NNW,346,7.0,15.0,51,0.00,,,0.00,meteohub,2013-02-17 22:43:00,
2013-02-17 17:48:00,21.4,36.1,29.58,NNW,344,7.0,21.0,51,0.00,,,0.00,meteohub,2013-02-17 22:48:00,
2013-02-17 17:53:00,21.4,36.3,29.58,North,355,9.0,21.0,50,0.00,,,0.00,meteohub,2013-02-17 22:53:00,
2013-02-17 17:58:00,21.4,36.3,29.58,North,0,4.0,20.0,50,0.00,,,0.00,meteohub,2013-02-17 22:58:00,
2013-02-17 18:03:00,21.4,36.1,29.58,NNW,331,8.0,20.0,50,0.00,,,0.00,meteohub,2013-02-17 23:03:00,
2013-02-17 18:08:00,21.4,36.0,29.59,NNW,338,10.0,20.0,52,0.00,,,0.00,meteohub,2013-02-17 23:08:00,
2013-02-17 18:13:00,21.4,36.0,29.59,NW,318,13.0,19.0,49,0.00,,,0.00,meteohub,2013-02-17 23:13:00,
2013-02-17 18:18:00,21.4,36.1,29.58,NW,325,8.0,19.0,50,0.00,,,0.00,meteohub,2013-02-17 23:18:00,
2013-02-17 18:23:00,21.4,36.3,29.58,NW,323,4.0,23.0,51,0.00,,,0.00,meteohub,2013-02-17 23:23:00,
2013-02-17 18:28:00,21.2,36.3,29.59,NNE,26,12.0,23.0,51,0.00,,,0.00,meteohub,2013-02-17 23:28:00,
2013-02-17 18:33:00,21.2,36.3,29.58,WNW,302,8.0,18.0,51,0.00,,,0.00,meteohub,2013-02-17 23:33:00,
2013-02-17 18:38:00,21.0,36.1,29.58,NNW,344,6.0,20.0,51,0.00,,,0.00,meteohub,2013-02-17 23:38:00,
2013-02-17 18:43:00,21.0,34.9,29.58,NNE,25,0.0,20.0,52,0.00,,,0.00,meteohub,2013-02-17 23:43:00,
2013-02-17 18:48:00,20.8,36.0,29.59,NNE,19,6.0,20.0,51,0.00,,,0.00,meteohub,2013-02-17 23:48:00,
2013-02-17 18:53:00,20.8,36.1,29.58,North,355,10.0,16.0,51,0.00,,,0.00,meteohub,2013-02-17 23:53:00,
2013-02-17 18:58:00,20.8,36.3,29.59,NW,322,3.0,16.0,52,0.00,,,0.00,meteohub,2013-02-17 23:58:00,
2013-02-17 19:03:00,20.8,36.3,29.58,NNW,340,11.0,16.0,52,0.00,,,0.00,meteohub,2013-02-18 00:03:00,
2013-02-17 19:08:00,20.8,35.1,29.59,NNW,330,4.0,14.0,52,0.00,,,0.00,meteohub,2013-02-18 00:08:00,
2013-02-17 19:14:00,20.8,34.9,29.59,NNE,24,4.0,19.0,49,0.00,,,0.00,meteohub,2013-02-18 00:14:00,
2013-02-17 19:19:00,20.8,34.9,29.59,North,355,5.0,19.0,48,0.00,,,0.00,meteohub,2013-02-18 00:19:00,
2013-02-17 19:24:00,20.8,34.9,29.59,NNW,340,11.0,15.0,48,0.00,,,0.00,meteohub,2013-02-18 00:24:00,
2013-02-17 19:29:00,20.8,35.2,29.59,North,0,7.0,20.0,49,0.00,,,0.00,meteohub,2013-02-18 00:29:00,
2013-02-17 19:34:00,20.8,36.3,29.59,North,5,2.0,20.0,48,0.00,,,0.00,meteohub,2013-02-18 00:34:00,
2013-02-17 19:39:00,20.7,36.3,29.59,NW,315,5.0,20.0,48,0.00,,,0.00,meteohub,2013-02-18 00:39:00,
2013-02-17 19:44:00,20.7,36.1,29.59,NNW,330,10.0,18.0,48,0.00,,,0.00,meteohub,2013-02-18 00:44:00,
2013-02-17 19:49:00,20.7,36.0,29.59,NNW,333,6.0,19.0,47,0.00,,,0.00,meteohub,2013-02-18 00:49:00,
2013-02-17 19:54:00,20.5,36.0,29.59,North,5,11.0,19.0,48,0.00,,,0.00,meteohub,2013-02-18 00:54:00,
2013-02-17 19:59:00,20.5,36.1,29.59,NNW,333,8.0,19.0,47,0.00,,,0.00,meteohub,2013-02-18 00:59:00,
2013-02-17 20:04:00,20.3,35.1,29.60,NNW,331,15.0,19.0,48,0.00,,,0.00,meteohub,2013-02-18 01:04:00,
2013-02-17 20:09:00,20.3,35.1,29.60,NW,323,12.0,18.0,48,0.00,,,0.00,meteohub,2013-02-18 01:09:00,
2013-02-17 20:14:00,20.1,36.1,29.60,NNW,336,3.0,20.0,48,0.00,,,0.00,meteohub,2013-02-18 01:14:00,
2013-02-17 20:19:00,20.1,36.0,29.60,NNW,348,8.0,20.0,48,0.00,,,0.00,meteohub,2013-02-18 01:19:00,
2013-02-17 20:24:00,19.9,36.0,29.61,NNW,333,5.0,24.0,47,0.00,,,0.00,meteohub,2013-02-18 01:24:00,
2013-02-17 20:29:00,19.9,36.1,29.61,North,355,4.0,24.0,47,0.00,,,0.00,meteohub,2013-02-18 01:29:00,
2013-02-17 20:34:00,19.8,36.5,29.62,NNE,12,4.0,24.0,48,0.00,,,0.00,meteohub,2013-02-18 01:34:00,
2013-02-17 20:39:00,19.8,36.5,29.62,North,0,12.0,19.0,47,0.00,,,0.00,meteohub,2013-02-18 01:39:00,
2013-02-17 20:44:00,19.8,36.3,29.62,NNE,29,5.0,19.0,47,0.00,,,0.00,meteohub,2013-02-18 01:44:00,
2013-02-17 20:49:00,19.6,36.3,29.63,WNW,290,12.0,20.0,47,0.00,,,0.00,meteohub,2013-02-18 01:49:00,
2013-02-17 20:54:00,19.4,36.3,29.62,North,5,12.0,20.0,48,0.00,,,0.00,meteohub,2013-02-18 01:54:00,
2013-02-17 20:59:00,19.2,36.3,29.63,NNW,336,10.0,20.0,48,0.00,,,0.00,meteohub,2013-02-18 01:59:00,
2013-02-17 21:04:00,19.0,36.5,29.63,NW,310,12.0,20.0,48,0.00,,,0.00,meteohub,2013-02-18 02:04:00,
2013-02-17 21:09:00,19.0,36.5,29.63,NNW,327,6.0,19.0,49,0.00,,,0.00,meteohub,2013-02-18 02:09:00,
2013-02-17 21:14:00,18.9,36.3,29.64,NW,326,6.0,19.0,48,0.00,,,0.00,meteohub,2013-02-18 02:14:00,
2013-02-17 21:19:00,18.9,36.1,29.64,NNW,329,5.0,19.0,49,0.00,,,0.00,meteohub,2013-02-18 02:19:00,
2013-02-17 21:24:00,18.9,34.9,29.65,North,349,2.0,19.0,48,0.00,,,0.00,meteohub,2013-02-18 02:24:00,
2013-02-17 21:29:00,18.7,34.7,29.65,NNW,330,9.0,19.0,49,0.00,,,0.00,meteohub,2013-02-18 02:29:00,
2013-02-17 21:34:00,18.5,34.5,29.65,NNE,27,3.0,14.0,48,0.00,,,0.00,meteohub,2013-02-18 02:34:00,
2013-02-17 21:39:00,18.5,34.3,29.66,NNW,341,0.0,15.0,49,0.00,,,0.00,meteohub,2013-02-18 02:39:00,
2013-02-17 21:44:00,19.2,34.2,29.66,NW,313,5.0,16.0,50,0.00,,,0.00,meteohub,2013-02-18 02:44:00,
2013-02-17 21:49:00,19.2,34.2,29.66,SSE,155,1.0,16.0,50,0.00,,,0.00,meteohub,2013-02-18 02:49:00,
2013-02-17 21:54:00,19.0,34.0,29.66,NW,317,4.0,16.0,50,0.00,,,0.00,meteohub,2013-02-18 02:54:00,
2013-02-17 21:59:00,18.9,33.8,29.67,NNE,19,0.0,7.0,50,0.00,,,0.00,meteohub,2013-02-18 02:59:00,
2013-02-17 22:04:00,18.9,33.8,29.67,NNE,14,2.0,11.0,50,0.00,,,0.00,meteohub,2013-02-18 03:04:00,
2013-02-17 22:09:00,18.7,33.6,29.68,NW,309,5.0,16.0,50,0.00,,,0.00,meteohub,2013-02-18 03:09:00,
2013-02-17 22:14:00,18.5,33.6,29.68,NW,318,0.0,16.0,51,0.00,,,0.00,meteohub,2013-02-18 03:14:00,
2013-02-17 22:19:00,18.3,33.4,29.68,NNW,344,7.0,16.0,51,0.00,,,0.00,meteohub,2013-02-18 03:19:00,
2013-02-17 22:25:00,18.3,33.3,29.68,NNW,344,1.0,14.0,51,0.00,,,0.00,meteohub,2013-02-18 03:25:00,
2013-02-17 22:30:00,18.1,33.3,29.68,NW,316,2.0,14.0,51,0.00,,,0.00,meteohub,2013-02-18 03:30:00,
2013-02-17 22:35:00,18.1,33.1,29.69,North,5,2.0,12.0,52,0.00,,,0.00,meteohub,2013-02-18 03:35:00,
2013-02-17 22:40:00,18.0,33.1,29.69,NNW,346,0.0,22.0,52,0.00,,,0.00,meteohub,2013-02-18 03:40:00,
2013-02-17 22:45:00,18.0,32.9,29.69,NNW,329,5.0,22.0,52,0.00,,,0.00,meteohub,2013-02-18 03:45:00,
2013-02-17 22:50:00,18.0,32.9,29.70,North,355,2.0,22.0,52,0.00,,,0.00,meteohub,2013-02-18 03:50:00,
2013-02-17 22:55:00,17.8,32.7,29.70,WNW,283,5.0,13.0,52,0.00,,,0.00,meteohub,2013-02-18 03:55:00,
2013-02-17 23:00:00,17.8,32.7,29.71,WNW,302,4.0,14.0,53,0.00,,,0.00,meteohub,2013-02-18 04:00:00,
2013-02-17 23:05:00,17.6,32.5,29.70,NW,319,1.0,14.0,53,0.00,,,0.00,meteohub,2013-02-18 04:05:00,
2013-02-17 23:10:00,17.4,32.4,29.71,NW,325,2.0,14.0,53,0.00,,,0.00,meteohub,2013-02-18 04:10:00,
2013-02-17 23:15:00,17.4,32.4,29.71,NNW,345,1.0,12.0,53,0.00,,,0.00,meteohub,2013-02-18 04:15:00,
2013-02-17 23:20:00,17.2,32.4,29.71,WNW,288,5.0,12.0,54,0.00,,,0.00,meteohub,2013-02-18 04:20:00,
2013-02-17 23:25:00,17.2,32.4,29.72,NW,321,4.0,11.0,54,0.00,,,0.00,meteohub,2013-02-18 04:25:00,
2013-02-17 23:30:00,17.2,32.2,29.72,NNE,13,0.0,11.0,54,0.00,,,0.00,meteohub,2013-02-18 04:30:00,
2013-02-17 23:35:00,17.1,32.2,29.72,NNE,21,2.0,14.0,54,0.00,,,0.00,meteohub,2013-02-18 04:35:00,
2013-02-17 23:40:00,17.1,32.0,29.72,NW,315,1.0,10.0,54,0.00,,,0.00,meteohub,2013-02-18 04:40:00,
2013-02-17 23:45:00,17.1,31.8,29.72,NNW,338,4.0,11.0,54,0.00,,,0.00,meteohub,2013-02-18 04:45:00,
2013-02-17 23:50:00,16.9,31.8,29.72,NNE,25,5.0,11.0,54,0.00,,,0.00,meteohub,2013-02-18 04:50:00,
2013-02-17 23:55:00,16.9,31.6,29.72,NNW,345,7.0,11.0,54,0.00,,,0.00,meteohub,2013-02-18 04:55:00,